Regional Weather Roundup
Issued by NWS

Home | Current Version | Previous Version | Graphics & Text | Print | Product List | Glossary On
Versions: 1 2 3 4 5 6 7 8 9 10 11 12 13 14 15 16 17 18 19 20 21 22 23 24 25 26 27 28 29 30 31 32 33 34 35 36 37 38 39 40 41 42 43 44 45 46 47 48 49
000
ASUS45 KBOU 102007
RWRCO

WEATHER ROUNDUP FOR COLORADO
NATIONAL WEATHER SERVICE DENVER/BOULDER CO
100 PM MST WED FEB 10 2016

NOTE: "FAIR" INDICATES FEW OR NO CLOUDS BELOW 12000 FEET WITH NO
SIGNIFICANT WEATHER AND/OR OBSTRUCTIONS TO VISIBILITY.

COZ001>005-013-030-031-102100-
...NORTHWEST COLORADO...

CITY           SKY/WX    TMP DP  RH WIND       PRES   REMARKS
CRAIG          CLOUDY    23  17  78 SW6       30.36F WCI  16
HAYDEN         CLOUDY    28  16  59 E6        30.35F WCI  22
MEEKER         CLOUDY    34  18  52 CALM      30.35F
MOUNT WERNER   NOT AVBL
STEAMBOAT SPGS CLOUDY    25  16  69 CALM      30.36F
WALDEN         SUNNY     37  16  41 CALM      30.33F
$$

COZ006>008-011-102100-
...WEST CENTRAL VALLEYS...

CITY           SKY/WX    TMP DP  RH WIND       PRES   REMARKS
GRAND JUNCTION SUNNY     36  28  73 N7        30.42F
MONTROSE       SUNNY     42  22  44 N3        30.41F
EAGLE          SUNNY     30  16  55 CALM      30.42F
RIFLE          SUNNY     36  16  44 CALM      30.41F
DELTA          SUNNY     45  24  43 W3        30.41F
NUCLA          SUNNY     41  23  48 CALM      30.45F
$$

COZ017>023-064>068-102100-
...SOUTHWEST COLORADO...

CITY           SKY/WX    TMP DP  RH WIND       PRES   REMARKS
DURANGO        SUNNY     41  19  41 NE5       30.41F
CORTEZ         SUNNY     46  23  40 S3        30.42F
PAGOSA SPRINGS SUNNY     50   8  18 S3        30.41F
TELLURIDE      SUNNY     50  -4  10 W12       30.47F
WOLF CREEK PAS SUNNY     37   1  22 SW3       30.56F
$$

COZ009-010-012-014-032>034-037-058>063-102100-
...CENTRAL COLORADO...

CITY           SKY/WX    TMP DP  RH WIND       PRES   REMARKS
ASPEN          SUNNY     39  17  41 N7        30.37F
BUENA VISTA    SUNNY     51   9  18 CALM      30.32F
COPPER MTN     CLOUDY    37  -6  15 W29G36    30.47F
BERTHOUD PASS  FAIR      30  19  64 W41G52    30.39F WCI  13
COTTONWOOD PAS SUNNY     50 -17   6 SW23G41   30.38F
GUNNISON       CLOUDY     7   1  78 E3        30.55F
KREMMLING      LGT SNOW N/A N/A N/A CALM      30.44F
LEADVILLE      CLOUDY    43   1  17 NW10G22   30.40F
MONARCH PASS   SUNNY     30   5  34 W31G38    30.58F WCI  15
SALIDA         NOT AVBL
SUNLIGHT       SUNNY     41  16  36 CALM      30.50F
WILKERSON PASS CLOUDY    41   0  17 W8        30.45F
$$

COZ069>075-102100-
...SAN LUIS VALLEY/SANGRE DE CRISTO MOUNTAINS...

CITY           SKY/WX    TMP DP  RH WIND       PRES   REMARKS
ALAMOSA        SUNNY     42  19  39 CALM      30.40F
LA VETA PASS   SUNNY     45   9  23 S9G18     30.41F
SAGUACHE       SUNNY     43  14  31 S3        30.40F
$$

COZ035-036-038>040-102100-
...NORTHERN COLORADO FRONT RANGE...

CITY           SKY/WX    TMP DP  RH WIND       PRES   REMARKS
DENVER INTL AP MOSUNNY   64  17  16 W22G28    30.10F
DMNS CITY PARK   N/A     67   8  10 W13G31    30.11F
AURORA         NOT AVBL
FRONT RANGE AP NOT AVBL
ERIE MUNI ARPT SUNNY     62  14  15 W14G24    30.10F
BOULDER MUN AP SUNNY     66  16  14 NE5       30.10F
CENTENNIAL     MOSUNNY   62   7  11 W9        30.14F
BROOMFIELD     MOSUNNY   68  10  10 W18       30.13F
FORT COLLINS   SUNNY     55  25  30 W5        30.08F
LONGMONT       SUNNY     67  15  13 W8        30.10F
$$

COZ041-046-047-076>085-087-088-102100-
...PIKES PEAK/PALMER DIVIDE AND SOUTHERN FOOTHILLS...

CITY           SKY/WX    TMP DP  RH WIND       PRES   REMARKS
COLO. SPRINGS  MOSUNNY   62   4  10 NW14G26   30.18F
A. F. ACADEMY  NOT AVBL
SCHRIEVER AFB  FAIR      56  18  23 W7        30.18F
ELLICOTT       SUNNY    N/A N/A N/A SW7       30.17F
FALCON         NOT AVBL
FORT CARSON    NOT AVBL
LIMON          SUNNY     47  26  44 W10       30.12F
MONUMENT HILL  SUNNY     48  19  32 NW3       30.21F
TRINIDAD       SUNNY     71   0   6 NW15      30.19F
$$

COZ042>045-048>051-090-091-102100-
...NORTHEAST COLORADO...

CITY           SKY/WX    TMP DP  RH WIND       PRES   REMARKS
GREELEY ARPT   SUNNY     57  30  35 SW6       30.06F
AKRON          SUNNY     51  29  42 W9        30.05F
BURLINGTON     SUNNY     52  29  41 W9        30.05F
WRAY           NOT AVBL
STERLING       SUNNY     61  32  33 N12       30.01F
HOLYOKE        SUNNY     59  32  36 NW12G20   30.01F
FORT MORGAN    SUNNY     55  31  40 W10       30.05F
$$

COZ086-089-092>099-102100-
...SOUTHEAST COLORADO...

CITY           SKY/WX    TMP DP  RH WIND       PRES   REMARKS
PUEBLO         SUNNY     74   7   7 W21G28    30.12F
LA JUNTA       SUNNY     73  20  13 W15       30.10F
LAMAR          SUNNY     71  21  15 W14       30.06F
SPRINGFIELD      N/A     73   6   7 NW16      30.11F
$$




USA.gov is the U.S. government's official web portal to all federal, state and local government web resources and services.